EW7358 Weather Reports


time (UTC)temp
C
wind
direction
speed
KPH
gust
KPH
rain 1hr
cm
rain 24hr
cm
rain mn
cm
humidity
%
barometer
mb
20260504150810 20 250 3.2 9.7 0.00 0.00 0.00 50 1001.6
20260504141012 17 192 4.8 12.9 0.00 0.00 0.00 53 1002.0
20260504140510 17 197 3.2 11.3 0.00 0.00 0.00 54 1001.9
20260504130504 14 234 0.0 14.5 0.00 0.00 0.00 58 1002.4
20260504110504 9 221 0.0 0.0 0.00 0.00 0.00 67 1002.7
20260504100504 9 242 0.0 1.6 0.00 0.00 0.00 66 1003.3
20260504081536 10 251 0.0 1.6 0.00 0.00 0.00 59 1004.4
20260504081008 10 251 0.0 1.6 0.00 0.00 0.00 59 1004.4
20260504080508 10 251 0.0 0.0 0.00 0.00 0.00 59 1004.4
20260504050508 12 261 0.0 0.0 0.00 0.00 0.00 48 1006.6
20260504050020 12 261 0.0 0.0 0.00 0.00 0.00 47 1006.6
20260504045509 12 261 0.0 1.6 0.00 0.00 0.00 46 1006.6
20260504045006 12 261 0.0 1.6 0.00 0.00 0.00 46 1006.7
20260504044523 12 261 0.0 0.0 0.00 0.00 0.00 44 1006.7
20260504044003 12 261 0.0 0.0 0.00 0.00 0.00 44 1006.8
20260504043518 12 261 0.0 0.0 0.00 0.00 0.00 45 1006.8
20260504043005 12 261 0.0 3.2 0.00 0.00 0.00 43 1006.8
20260504042504 13 261 0.0 3.2 0.00 0.00 0.00 41 1006.9
20260504042009 13 261 0.0 0.0 0.00 0.00 0.00 41 1006.9
20260504041006 13 261 0.0 1.6 0.00 0.00 0.00 40 1007.0
20260504040508 13 261 0.0 3.2 0.00 0.00 0.00 40 1007.1
20260504040016 13 261 0.0 3.2 0.00 0.00 0.00 40 1007.2
20260504035510 13 261 0.0 3.2 0.00 0.00 0.00 39 1007.3
20260504035009 14 261 0.0 3.2 0.00 0.00 0.00 39 1007.3
20260504034517 14 261 0.0 3.2 0.00 0.00 0.00 38 1007.4
20260504033506 14 261 0.0 3.2 0.00 0.00 0.00 37 1007.5
20260504033023 15 261 0.0 3.2 0.00 0.00 0.00 37 1007.6
20260504032504 15 261 0.0 3.2 0.00 0.00 0.00 36 1007.7
20260504032006 15 261 0.0 3.2 0.00 0.00 0.00 36 1007.7
20260504031506 15 261 0.0 3.2 0.00 0.00 0.00 36 1007.7
20260504031004 15 261 0.0 3.2 0.00 0.00 0.00 35 1007.7
20260504030505 15 261 0.0 3.2 0.00 0.00 0.00 34 1007.7
20260504030021 15 261 0.0 3.2 0.00 0.00 0.00 34 1007.7
20260504025508 16 261 0.0 3.2 0.00 0.00 0.00 34 1007.7
20260504025007 16 261 0.0 3.2 0.00 0.00 0.00 33 1007.7
20260504024517 16 261 0.0 3.2 0.00 0.00 0.00 33 1007.7
20260504024007 16 261 0.0 3.2 0.00 0.00 0.00 33 1007.7
20260504023508 16 261 0.0 3.2 0.00 0.00 0.00 32 1007.7
20260504023021 16 261 0.0 3.2 0.00 0.00 0.00 32 1007.7
20260504022507 16 261 0.0 3.2 0.00 0.00 0.00 32 1007.7
20260504022011 17 261 0.0 3.2 0.00 0.00 0.00 31 1007.7
20260504021526 17 261 0.0 3.2 0.00 0.00 0.00 31 1007.7
20260504021004 17 268 0.0 3.2 0.00 0.00 0.00 31 1007.6
20260504020505 17 268 0.0 3.2 0.00 0.00 0.00 30 1007.6
20260504020012 17 268 0.0 3.2 0.00 0.00 0.00 30 1007.5
20260504015506 17 269 0.0 3.2 0.00 0.00 0.00 29 1007.5
20260504015011 18 269 0.0 3.2 0.00 0.00 0.00 28 1007.5
20260504014519 18 269 0.0 3.2 0.00 0.00 0.00 28 1007.5
20260504014008 18 269 0.0 3.2 0.00 0.00 0.00 28 1007.5
20260504013508 19 269 0.0 3.2 0.00 0.00 0.00 27 1007.5
20260504013034 19 269 0.0 3.2 0.00 0.00 0.00 27 1007.6
20260504012508 20 269 0.0 3.2 0.00 0.00 0.00 27 1007.5
20260504012007 20 273 0.0 3.2 0.00 0.00 0.00 26 1007.5
20260504011523 20 273 0.0 3.2 0.00 0.00 0.00 26 1007.5
20260504011008 20 277 0.0 6.4 0.00 0.00 0.00 26 1007.5
20260504010510 21 277 1.6 6.4 0.00 0.00 0.00 25 1007.5
20260504010026 21 282 1.6 6.4 0.00 0.00 0.00 25 1007.5
20260504005510 21 288 3.2 9.7 0.00 0.00 0.00 24 1007.5
20260504005011 21 286 3.2 9.7 0.00 0.00 0.00 24 1007.5
20260504004510 22 260 3.2 11.3 0.00 0.00 0.00 23 1007.5
20260504004004 22 263 3.2 11.3 0.00 0.00 0.00 23 1007.5
20260504003509 22 292 3.2 9.7 0.00 0.00 0.00 23 1007.5
20260504003016 22 262 4.8 9.7 0.00 0.00 0.00 23 1007.6
20260504002515 22 296 4.8 9.7 0.00 0.00 0.00 22 1007.5
20260504002009 22 283 1.6 9.7 0.00 0.00 0.00 23 1007.5
20260504001524 22 286 3.2 12.9 0.00 0.00 0.00 23 1007.6
20260504001008 22 297 4.8 12.9 0.00 0.00 0.00 22 1007.6
20260504000510 23 278 6.4 14.5 0.00 0.00 0.00 21 1007.6
20260504000028 23 292 4.8 14.5 0.00 0.00 0.00 22 1007.5
20260503235503 23 296 1.6 12.9 0.00 0.00 0.00 22 1007.5
20260503235004 23 286 6.4 14.5 0.00 0.00 0.00 20 1007.6
20260503234527 23 256 4.8 16.1 0.00 0.00 0.00 21 1007.6
20260503234006 23 264 6.4 16.1 0.00 0.00 0.00 22 1007.6
20260503233507 23 311 8.0 22.5 0.00 0.00 0.00 22 1007.6
20260503233020 23 255 9.7 22.5 0.00 0.00 0.00 22 1007.6
20260503232502 23 289 8.0 14.5 0.00 0.00 0.00 21 1007.6
20260503232004 23 273 9.7 14.5 0.00 0.00 0.00 21 1007.6
20260503231504 23 233 6.4 16.1 0.00 0.00 0.00 23 1007.7
20260503231004 23 292 9.7 16.1 0.00 0.00 0.00 22 1007.6
20260503230514 23 282 9.7 20.9 0.00 0.00 0.00 22 1007.7
20260503230004 23 296 11.3 20.9 0.00 0.00 0.00 23 1007.7
20260503225503 23 318 9.7 17.7 0.00 0.00 0.00 23 1007.8
20260503225004 22 281 8.0 20.9 0.00 0.00 0.00 23 1007.8
20260503224509 22 297 12.9 20.9 0.00 0.00 0.00 22 1007.9
20260503224004 22 309 8.0 17.7 0.00 0.00 0.00 24 1007.8
20260503223507 22 291 8.0 25.7 0.00 0.00 0.00 23 1007.8
20260503223013 22 290 8.0 25.7 0.00 0.00 0.00 23 1007.8
20260503222504 22 294 11.3 20.9 0.00 0.00 0.00 22 1007.8
20260503222007 22 300 6.4 22.5 0.00 0.00 0.00 22 1007.8
20260503221518 23 272 11.3 22.5 0.00 0.00 0.00 23 1007.8
20260503221011 23 315 9.7 22.5 0.00 0.00 0.00 22 1007.8
20260503220503 22 276 8.0 24.1 0.00 0.00 0.00 22 1007.9
20260503220016 22 296 11.3 24.1 0.00 0.00 0.00 23 1007.9
20260503215503 23 290 8.0 16.1 0.00 0.00 0.00 23 1007.9
20260503215003 23 312 4.8 16.1 0.00 0.00 0.00 24 1007.9
20260503214503 23 321 6.4 16.1 0.00 0.00 0.00 26 1007.9
20260503214004 23 290 6.4 16.1 0.00 0.00 0.00 25 1007.9
20260503213505 23 305 6.4 17.7 0.00 0.00 0.00 25 1007.8
20260503213010 22 302 6.4 17.7 0.00 0.00 0.00 25 1007.8
20260503212507 22 307 6.4 19.3 0.00 0.00 0.00 25 1007.8
20260503212007 22 288 9.7 19.3 0.00 0.00 0.00 24 1007.8
20260503211514 22 297 6.4 22.5 0.00 0.00 0.00 24 1007.8
20260503211007 22 313 8.0 22.5 0.00 0.00 0.00 25 1007.8
20260503210507 23 293 9.7 19.3 0.00 0.00 0.00 25 1007.9
20260503210019 23 311 8.0 29.0 0.00 0.00 0.00 24 1008.0
20260503205503 23 314 16.1 32.2 0.00 0.00 0.00 22 1008.0
20260503205003 23 265 14.5 32.2 0.00 0.00 0.00 23 1008.1
20260503204504 23 288 9.7 24.1 0.00 0.00 0.00 25 1008.1
20260503204004 23 305 11.3 24.1 0.00 0.00 0.00 26 1008.1
20260503203506 23 289 11.3 22.5 0.00 0.00 0.00 26 1008.1
20260503203022 23 324 8.0 24.1 0.00 0.00 0.00 26 1008.3
20260503202504 23 335 9.7 24.1 0.00 0.00 0.00 25 1008.2
20260503202006 23 269 8.0 16.1 0.00 0.00 0.00 27 1008.3
20260503201514 23 306 8.0 17.7 0.00 0.00 0.00 27 1008.3
20260503201009 23 295 8.0 19.3 0.00 0.00 0.00 26 1008.3
20260503200508 23 269 9.7 27.4 0.00 0.00 0.00 28 1008.4
20260503200020 22 301 12.9 27.4 0.00 0.00 0.00 26 1008.4
20260503195509 22 299 8.0 19.3 0.00 0.00 0.00 25 1008.3
20260503195009 23 282 8.0 24.1 0.00 0.00 0.00 28 1008.4
20260503194536 22 273 14.5 33.8 0.00 0.00 0.00 26 1008.4
20260503194006 22 288 9.7 33.8 0.00 0.00 0.00 27 1008.5
20260503193505 22 307 17.7 29.0 0.00 0.00 0.00 27 1008.3
20260503193006 22 266 12.9 27.4 0.00 0.00 0.00 29 1008.5
20260503192504 22 305 11.3 20.9 0.00 0.00 0.00 28 1008.5
20260503192007 22 271 8.0 27.4 0.00 0.00 0.00 30 1008.5
20260503191512 22 307 9.7 27.4 0.00 0.00 0.00 28 1008.5
20260503191008 22 275 14.5 20.9 0.00 0.00 0.00 27 1008.5
20260503190508 22 283 11.3 20.9 0.00 0.00 0.00 28 1008.6
20260503190017 22 285 8.0 25.7 0.00 0.00 0.00 30 1008.4
20260503185511 22 355 8.0 25.7 0.00 0.00 0.00 27 1008.5
20260503185008 22 265 12.9 25.7 0.00 0.00 0.00 27 1008.5
20260503184524 22 288 16.1 25.7 0.00 0.00 0.00 29 1008.5
20260503184008 22 277 14.5 24.1 0.00 0.00 0.00 28 1008.5
20260503183508 22 311 12.9 25.7 0.00 0.00 0.00 28 1008.5
20260503183025 22 310 8.0 25.7 0.00 0.00 0.00 29 1008.6
20260503182503 22 263 9.7 32.2 0.00 0.00 0.00 29 1008.7
20260503182006 22 290 9.7 32.2 0.00 0.00 0.00 30 1008.7
20260503181510 22 291 12.9 25.7 0.00 0.00 0.00 29 1008.7
20260503181004 22 292 6.4 20.9 0.00 0.00 0.00 31 1008.7
20260503180507 22 278 9.7 25.7 0.00 0.00 0.00 33 1008.7
20260503180016 21 308 12.9 25.7 0.00 0.00 0.00 32 1008.6
20260503175508 21 269 6.4 24.1 0.00 0.00 0.00 35 1008.6
20260503175007 21 278 12.9 27.4 0.00 0.00 0.00 33 1008.6
20260503174518 21 272 14.5 27.4 0.00 0.00 0.00 32 1008.6
20260503174007 21 287 8.0 20.9 0.00 0.00 0.00 34 1008.6
20260503173508 20 313 9.7 22.5 0.00 0.00 0.00 32 1008.6
20260503173024 20 284 8.0 29.0 0.00 0.00 0.00 35 1008.8
20260503172514 20 269 11.3 29.0 0.00 0.00 0.00 34 1009.1
20260503172011 21 279 12.9 22.5 0.00 0.00 0.00 34 1009.1
20260503171526 21 286 9.7 22.5 0.00 0.00 0.00 36 1009.0
20260503171004 21 286 8.0 22.5 0.00 0.00 0.00 36 1009.0
20260503170504 20 304 9.7 24.1 0.00 0.00 0.00 36 1008.9